Year,Month,Day,Hour,Minute,Value (Times are PST for temperature in C)
2016,06,04,00,00,14.90
2016,06,04,00,01,14.80
2016,06,04,00,02,14.80
2016,06,04,00,03,14.80
2016,06,04,00,04,14.80
2016,06,04,00,05,14.70
2016,06,04,00,06,14.70
2016,06,04,00,07,14.70
2016,06,04,00,08,14.70
2016,06,04,00,09,14.60
2016,06,04,00,10,14.60
2016,06,04,00,11,14.60
2016,06,04,00,12,14.60
2016,06,04,00,13,14.60
2016,06,04,00,14,14.50
2016,06,04,00,15,14.50
2016,06,04,00,16,14.50
2016,06,04,00,17,14.40
2016,06,04,00,18,14.40
2016,06,04,00,19,14.30
2016,06,04,00,20,14.30
2016,06,04,00,21,14.20
2016,06,04,00,22,14.20
2016,06,04,00,23,14.20
2016,06,04,00,24,14.10
2016,06,04,00,25,14.00
2016,06,04,00,26,14.00
2016,06,04,00,27,13.90
2016,06,04,00,28,13.90
2016,06,04,00,29,13.90
2016,06,04,00,30,13.80
2016,06,04,00,31,13.80
2016,06,04,00,32,13.80
2016,06,04,00,33,13.70
2016,06,04,00,34,13.70
2016,06,04,00,35,13.70
2016,06,04,00,36,13.70
2016,06,04,00,37,13.60
2016,06,04,00,38,13.60
2016,06,04,00,39,13.60
2016,06,04,00,40,13.60
2016,06,04,00,41,13.50
2016,06,04,00,42,13.50
2016,06,04,00,43,13.50
2016,06,04,00,44,13.50
2016,06,04,00,45,13.40
2016,06,04,00,46,13.40
2016,06,04,00,47,13.40
2016,06,04,00,48,13.50
2016,06,04,00,49,13.50
2016,06,04,00,50,13.50
2016,06,04,00,51,13.50
2016,06,04,00,52,13.50
2016,06,04,00,53,13.50
2016,06,04,00,54,13.60
2016,06,04,00,55,13.50
2016,06,04,00,56,13.50
2016,06,04,00,57,13.50
2016,06,04,00,58,13.50
2016,06,04,00,59,13.50
2016,06,04,01,00,13.50
2016,06,04,01,01,13.40
2016,06,04,01,02,13.40
2016,06,04,01,03,13.40
2016,06,04,01,04,13.40
2016,06,04,01,05,13.40
2016,06,04,01,06,13.40
2016,06,04,01,07,13.40
2016,06,04,01,08,13.40
2016,06,04,01,09,13.40
2016,06,04,01,10,13.40
2016,06,04,01,11,13.40
2016,06,04,01,12,13.40
2016,06,04,01,13,13.30
2016,06,04,01,14,13.30
2016,06,04,01,15,13.30
2016,06,04,01,16,13.30
2016,06,04,01,17,13.30
2016,06,04,01,18,13.30
2016,06,04,01,19,13.30
2016,06,04,01,20,13.30
2016,06,04,01,21,13.30
2016,06,04,01,22,13.30
2016,06,04,01,23,13.30
2016,06,04,01,24,13.30
2016,06,04,01,25,13.30
2016,06,04,01,26,13.30
2016,06,04,01,27,13.30
2016,06,04,01,28,13.30
2016,06,04,01,29,13.30
2016,06,04,01,30,13.30
2016,06,04,01,31,13.30
2016,06,04,01,32,13.30
2016,06,04,01,33,13.30
2016,06,04,01,34,13.30
2016,06,04,01,35,13.30
2016,06,04,01,36,13.30
2016,06,04,01,37,13.30
2016,06,04,01,38,13.30
2016,06,04,01,39,13.30
2016,06,04,01,40,13.30
2016,06,04,01,41,13.30
2016,06,04,01,42,13.30
2016,06,04,01,43,13.30
2016,06,04,01,44,13.30
2016,06,04,01,45,13.30
2016,06,04,01,46,13.30
2016,06,04,01,47,13.30
2016,06,04,01,48,13.30
2016,06,04,01,49,13.30
2016,06,04,01,50,13.30
2016,06,04,01,51,13.30
2016,06,04,01,52,13.30
2016,06,04,01,53,13.30
2016,06,04,01,54,13.30
2016,06,04,01,55,13.30
2016,06,04,01,56,13.30
2016,06,04,01,57,13.30
2016,06,04,01,58,13.30
2016,06,04,01,59,13.30
2016,06,04,02,00,13.30
2016,06,04,02,01,13.30
2016,06,04,02,02,13.40
2016,06,04,02,03,13.40
2016,06,04,02,04,13.40
2016,06,04,02,05,13.40
2016,06,04,02,06,13.40
2016,06,04,02,07,13.40
2016,06,04,02,08,13.40
2016,06,04,02,09,13.40
2016,06,04,02,10,13.40
2016,06,04,02,11,13.40
2016,06,04,02,12,13.40
2016,06,04,02,13,13.40
2016,06,04,02,14,13.40
2016,06,04,02,15,13.40
2016,06,04,02,16,13.40
2016,06,04,02,17,13.30
2016,06,04,02,18,13.30
2016,06,04,02,19,13.30
2016,06,04,02,20,13.30
2016,06,04,02,21,13.30
2016,06,04,02,22,13.30
2016,06,04,02,23,13.30
2016,06,04,02,24,13.30
2016,06,04,02,25,13.30
2016,06,04,02,26,13.30
2016,06,04,02,27,13.30
2016,06,04,02,28,13.30
2016,06,04,02,29,13.30
2016,06,04,02,30,13.30
2016,06,04,02,31,13.20
2016,06,04,02,32,13.20
2016,06,04,02,33,13.20
2016,06,04,02,34,13.20
2016,06,04,02,35,13.20
2016,06,04,02,36,13.20
2016,06,04,02,37,13.20
2016,06,04,02,38,13.20
2016,06,04,02,39,13.20
2016,06,04,02,40,13.10
2016,06,04,02,41,13.10
2016,06,04,02,42,13.10
2016,06,04,02,43,13.10
2016,06,04,02,44,13.10
2016,06,04,02,45,13.10
2016,06,04,02,46,13.10
2016,06,04,02,47,13.10
2016,06,04,02,48,13.00
2016,06,04,02,49,13.00
2016,06,04,02,50,13.00
2016,06,04,02,51,13.00
2016,06,04,02,52,13.00
2016,06,04,02,53,13.00
2016,06,04,02,54,12.90
2016,06,04,02,55,12.90
2016,06,04,02,56,12.90
2016,06,04,02,57,12.90
2016,06,04,02,58,12.90
2016,06,04,02,59,12.90
2016,06,04,03,00,12.90
2016,06,04,03,01,12.90
2016,06,04,03,02,12.90
2016,06,04,03,03,12.90
2016,06,04,03,04,12.90
2016,06,04,03,05,12.90
2016,06,04,03,06,12.90
2016,06,04,03,07,12.90
2016,06,04,03,08,12.90
2016,06,04,03,09,12.90
2016,06,04,03,10,12.90
2016,06,04,03,11,12.90
2016,06,04,03,12,12.90
2016,06,04,03,13,12.90
2016,06,04,03,14,12.90
2016,06,04,03,15,12.90
2016,06,04,03,16,12.90
2016,06,04,03,17,12.90
2016,06,04,03,18,12.80
2016,06,04,03,19,12.80
2016,06,04,03,20,12.80
2016,06,04,03,21,12.80
2016,06,04,03,22,12.80
2016,06,04,03,23,12.80
2016,06,04,03,24,12.80
2016,06,04,03,25,12.80
2016,06,04,03,26,12.80
2016,06,04,03,27,12.80
2016,06,04,03,28,12.80
2016,06,04,03,29,12.80
2016,06,04,03,30,12.80
2016,06,04,03,31,12.80
2016,06,04,03,32,12.80
2016,06,04,03,33,12.80
2016,06,04,03,34,12.80
2016,06,04,03,35,12.70
2016,06,04,03,36,12.70
2016,06,04,03,37,12.70
2016,06,04,03,38,12.70
2016,06,04,03,39,12.70
2016,06,04,03,40,12.70
2016,06,04,03,41,12.70
2016,06,04,03,42,12.70
2016,06,04,03,43,12.70
2016,06,04,03,44,12.70
2016,06,04,03,45,12.70
2016,06,04,03,46,12.60
2016,06,04,03,47,12.60
2016,06,04,03,48,12.60
2016,06,04,03,49,12.60
2016,06,04,03,50,12.60
2016,06,04,03,51,12.60
2016,06,04,03,52,12.60
2016,06,04,03,53,12.60
2016,06,04,03,54,12.60
2016,06,04,03,55,12.60
2016,06,04,03,56,12.60
2016,06,04,03,57,12.60
2016,06,04,03,58,12.60
2016,06,04,03,59,12.60
2016,06,04,04,00,12.60
2016,06,04,04,01,12.60
2016,06,04,04,02,12.60
2016,06,04,04,03,12.60
2016,06,04,04,04,12.60
2016,06,04,04,05,12.60
2016,06,04,04,06,12.60
2016,06,04,04,07,12.60
2016,06,04,04,08,12.60
2016,06,04,04,09,12.60
2016,06,04,04,10,12.60
2016,06,04,04,11,12.60
2016,06,04,04,12,12.60
2016,06,04,04,13,12.60
2016,06,04,04,14,12.60
2016,06,04,04,15,12.60
2016,06,04,04,16,12.60
2016,06,04,04,17,12.60
2016,06,04,04,18,12.60
2016,06,04,04,19,12.60
2016,06,04,04,20,12.60
2016,06,04,04,21,12.60
2016,06,04,04,22,12.60
2016,06,04,04,23,12.60
2016,06,04,04,24,12.60
2016,06,04,04,25,12.60
2016,06,04,04,26,12.60
2016,06,04,04,27,12.60
2016,06,04,04,28,12.60
2016,06,04,04,29,12.60
2016,06,04,04,30,12.60
2016,06,04,04,31,12.60
2016,06,04,04,32,12.60
2016,06,04,04,33,12.60
2016,06,04,04,34,12.60
2016,06,04,04,35,12.60
2016,06,04,04,36,12.60
2016,06,04,04,37,12.60
2016,06,04,04,38,12.60
2016,06,04,04,39,12.60
2016,06,04,04,40,12.60
2016,06,04,04,41,12.60
2016,06,04,04,42,12.60
2016,06,04,04,43,12.60
2016,06,04,04,44,12.60
2016,06,04,04,45,12.60
2016,06,04,04,46,12.60
2016,06,04,04,47,12.60
2016,06,04,04,48,12.60
2016,06,04,04,49,12.60
2016,06,04,04,50,12.60
2016,06,04,04,51,12.60
2016,06,04,04,52,12.60
2016,06,04,04,53,12.60
2016,06,04,04,54,12.60
2016,06,04,04,55,12.60
2016,06,04,04,56,12.60
2016,06,04,04,57,12.60
2016,06,04,04,58,12.60
2016,06,04,04,59,12.60
2016,06,04,05,00,12.60
2016,06,04,05,01,12.60
2016,06,04,05,02,12.60
2016,06,04,05,03,12.60
2016,06,04,05,04,12.60
2016,06,04,05,05,12.60
2016,06,04,05,06,12.50
2016,06,04,05,07,12.50
2016,06,04,05,08,12.50
2016,06,04,05,09,12.50
2016,06,04,05,10,12.50
2016,06,04,05,11,12.50
2016,06,04,05,12,12.50
2016,06,04,05,13,12.40
2016,06,04,05,14,12.40
2016,06,04,05,15,12.40
2016,06,04,05,16,12.40
2016,06,04,05,17,12.40
2016,06,04,05,18,12.50
2016,06,04,05,19,12.40
2016,06,04,05,20,12.40
2016,06,04,05,21,12.40
2016,06,04,05,22,12.40
2016,06,04,05,23,12.40
2016,06,04,05,24,12.40
2016,06,04,05,25,12.40
2016,06,04,05,26,12.40
2016,06,04,05,27,12.40
2016,06,04,05,28,12.40
2016,06,04,05,29,12.40
2016,06,04,05,30,12.50
2016,06,04,05,31,12.50
2016,06,04,05,32,12.60
2016,06,04,05,33,12.60
2016,06,04,05,34,12.60
2016,06,04,05,35,12.60
2016,06,04,05,36,12.70
2016,06,04,05,37,12.70
2016,06,04,05,38,12.70
2016,06,04,05,39,12.70
2016,06,04,05,40,12.80
2016,06,04,05,41,12.80
2016,06,04,05,42,12.90
2016,06,04,05,43,13.00
2016,06,04,05,44,13.00
2016,06,04,05,45,13.10
2016,06,04,05,46,13.20
2016,06,04,05,47,13.20
2016,06,04,05,48,13.20
2016,06,04,05,49,13.30
2016,06,04,05,50,13.30
2016,06,04,05,51,13.30
2016,06,04,05,52,13.30
2016,06,04,05,53,13.40
2016,06,04,05,54,13.40
2016,06,04,05,55,13.40
2016,06,04,05,56,13.40
2016,06,04,05,57,13.50
2016,06,04,05,58,13.50
2016,06,04,05,59,13.50
2016,06,04,06,00,13.50
2016,06,04,06,01,13.50
2016,06,04,06,02,13.50
2016,06,04,06,03,13.50
2016,06,04,06,04,13.50
2016,06,04,06,05,13.50
2016,06,04,06,06,13.50
2016,06,04,06,07,13.50
2016,06,04,06,08,13.60
2016,06,04,06,09,13.60
2016,06,04,06,10,13.60
2016,06,04,06,11,13.60
2016,06,04,06,12,13.60
2016,06,04,06,13,13.50
2016,06,04,06,14,13.50
2016,06,04,06,15,13.50
2016,06,04,06,16,13.50
2016,06,04,06,17,13.50
2016,06,04,06,18,13.40
2016,06,04,06,19,13.40
2016,06,04,06,20,13.40
2016,06,04,06,21,13.40
2016,06,04,06,22,13.40
2016,06,04,06,23,13.40
2016,06,04,06,24,13.40
2016,06,04,06,25,13.30
2016,06,04,06,26,13.30
2016,06,04,06,27,13.30
2016,06,04,06,28,13.30
2016,06,04,06,29,13.30
2016,06,04,06,30,13.30
2016,06,04,06,31,13.30
2016,06,04,06,32,13.30
2016,06,04,06,33,13.30
2016,06,04,06,34,13.40
2016,06,04,06,35,13.40
2016,06,04,06,36,13.50
2016,06,04,06,37,13.60
2016,06,04,06,38,13.60
2016,06,04,06,39,13.70
2016,06,04,06,40,13.80
2016,06,04,06,41,13.90
2016,06,04,06,42,13.90
2016,06,04,06,43,14.00
2016,06,04,06,44,14.10
2016,06,04,06,45,14.20
2016,06,04,06,46,14.30
2016,06,04,06,47,14.40
2016,06,04,06,48,14.50
2016,06,04,06,49,14.50
2016,06,04,06,50,14.60
2016,06,04,06,51,14.60
2016,06,04,06,52,14.70
2016,06,04,06,53,14.70
2016,06,04,06,54,14.80
2016,06,04,06,55,14.80
2016,06,04,06,56,14.80
2016,06,04,06,57,14.80
2016,06,04,06,58,14.90
2016,06,04,06,59,14.90
2016,06,04,07,00,14.90
2016,06,04,07,01,14.90
2016,06,04,07,02,14.90
2016,06,04,07,03,14.80
2016,06,04,07,04,14.80
2016,06,04,07,05,14.80
2016,06,04,07,06,14.70
2016,06,04,07,07,14.70
2016,06,04,07,08,14.70
2016,06,04,07,09,14.70
2016,06,04,07,10,14.70
2016,06,04,07,11,14.70
2016,06,04,07,12,14.70
2016,06,04,07,13,14.70
2016,06,04,07,14,14.70
2016,06,04,07,15,14.80
2016,06,04,07,16,14.80
2016,06,04,07,17,14.80
2016,06,04,07,18,14.80
2016,06,04,07,19,14.80
2016,06,04,07,20,14.90
2016,06,04,07,21,15.00
2016,06,04,07,22,15.00
2016,06,04,07,23,15.10
2016,06,04,07,24,15.10
2016,06,04,07,25,15.20
2016,06,04,07,26,15.30
2016,06,04,07,27,15.40
2016,06,04,07,28,15.40
2016,06,04,07,29,15.50
2016,06,04,07,30,15.60
2016,06,04,07,31,15.70
2016,06,04,07,32,15.80
2016,06,04,07,33,15.90
2016,06,04,07,34,16.00
2016,06,04,07,35,16.10
2016,06,04,07,36,16.20
2016,06,04,07,37,16.30
2016,06,04,07,38,16.40
2016,06,04,07,39,16.50
2016,06,04,07,40,16.70
2016,06,04,07,41,16.80
2016,06,04,07,42,16.90
2016,06,04,07,43,17.00
2016,06,04,07,44,17.20
2016,06,04,07,45,17.30
2016,06,04,07,46,17.30
2016,06,04,07,47,17.40
2016,06,04,07,48,17.50
2016,06,04,07,49,17.60
2016,06,04,07,50,17.60
2016,06,04,07,51,17.60
2016,06,04,07,52,17.70
2016,06,04,07,53,17.70
2016,06,04,07,54,17.70
2016,06,04,07,55,17.70
2016,06,04,07,56,17.80
2016,06,04,07,57,17.80
2016,06,04,07,58,17.80
2016,06,04,07,59,17.80
2016,06,04,08,00,17.70
2016,06,04,08,01,17.70
2016,06,04,08,02,17.70
2016,06,04,08,03,17.60
2016,06,04,08,04,17.60
2016,06,04,08,05,17.60
2016,06,04,08,06,17.60
2016,06,04,08,07,17.50
2016,06,04,08,08,17.50
2016,06,04,08,09,17.50
2016,06,04,08,10,17.50
2016,06,04,08,11,17.60
2016,06,04,08,12,17.50
2016,06,04,08,13,17.50
2016,06,04,08,14,17.50
2016,06,04,08,15,17.60
2016,06,04,08,16,17.60
2016,06,04,08,17,17.70
2016,06,04,08,18,17.80
2016,06,04,08,19,17.90
2016,06,04,08,20,18.00
2016,06,04,08,21,18.10
2016,06,04,08,22,18.20
2016,06,04,08,23,18.30
2016,06,04,08,24,18.30
2016,06,04,08,25,18.40
2016,06,04,08,26,18.50
2016,06,04,08,27,18.50
2016,06,04,08,28,18.60
2016,06,04,08,29,18.70
2016,06,04,08,30,18.70
2016,06,04,08,31,18.80
2016,06,04,08,32,18.80
2016,06,04,08,33,18.80
2016,06,04,08,34,18.80
2016,06,04,08,35,18.80
2016,06,04,08,36,18.80
2016,06,04,08,37,18.80
2016,06,04,08,38,18.80
2016,06,04,08,39,18.80
2016,06,04,08,40,18.90
2016,06,04,08,41,18.90
2016,06,04,08,42,18.90
2016,06,04,08,43,18.90
2016,06,04,08,44,18.90
2016,06,04,08,45,18.90
2016,06,04,08,46,19.00
2016,06,04,08,47,19.00
2016,06,04,08,48,19.10
2016,06,04,08,49,19.10
2016,06,04,08,50,19.10
2016,06,04,08,51,19.10
2016,06,04,08,52,19.10
2016,06,04,08,53,19.10
2016,06,04,08,54,19.10
2016,06,04,08,55,19.20
2016,06,04,08,56,19.20
2016,06,04,08,57,19.30
2016,06,04,08,58,19.30
2016,06,04,08,59,19.30
2016,06,04,09,00,19.30
2016,06,04,09,01,19.40
2016,06,04,09,02,19.40
2016,06,04,09,03,19.40
2016,06,04,09,04,19.40
2016,06,04,09,05,19.50
2016,06,04,09,06,19.50
2016,06,04,09,07,19.50
2016,06,04,09,08,19.50
2016,06,04,09,09,19.50
2016,06,04,09,10,19.50
2016,06,04,09,11,19.50
2016,06,04,09,12,19.50
2016,06,04,09,13,19.50
2016,06,04,09,14,19.50
2016,06,04,09,15,19.50
2016,06,04,09,16,19.60
2016,06,04,09,17,19.60
2016,06,04,09,18,19.70
2016,06,04,09,19,19.80
2016,06,04,09,20,19.80
2016,06,04,09,21,19.80
2016,06,04,09,22,19.80
2016,06,04,09,23,19.90
2016,06,04,09,24,19.90
2016,06,04,09,25,19.90
2016,06,04,09,26,19.80
2016,06,04,09,27,19.80
2016,06,04,09,28,19.80
2016,06,04,09,29,19.80
2016,06,04,09,30,19.80
2016,06,04,09,31,19.80
2016,06,04,09,32,19.80
2016,06,04,09,33,19.90
2016,06,04,09,34,19.90
2016,06,04,09,35,20.00
2016,06,04,09,36,20.10
2016,06,04,09,37,20.10
2016,06,04,09,38,20.10
2016,06,04,09,39,20.10
2016,06,04,09,40,20.20
2016,06,04,09,41,20.20
2016,06,04,09,42,20.20
2016,06,04,09,43,20.30
2016,06,04,09,44,20.30
2016,06,04,09,45,20.30
2016,06,04,09,46,20.40
2016,06,04,09,47,20.50
2016,06,04,09,48,20.50
2016,06,04,09,49,20.50
2016,06,04,09,50,20.40
2016,06,04,09,51,20.40
2016,06,04,09,52,20.40
2016,06,04,09,53,20.40
2016,06,04,09,54,20.40
2016,06,04,09,55,20.40
2016,06,04,09,56,20.40
2016,06,04,09,57,20.40
2016,06,04,09,58,20.40
2016,06,04,09,59,20.40
2016,06,04,10,00,20.40
2016,06,04,10,01,20.40
2016,06,04,10,02,20.40
2016,06,04,10,03,20.40
2016,06,04,10,04,20.40
2016,06,04,10,05,20.40
2016,06,04,10,06,20.40
2016,06,04,10,07,20.40
2016,06,04,10,08,20.40
2016,06,04,10,09,20.40
2016,06,04,10,10,20.40
2016,06,04,10,11,20.40
2016,06,04,10,12,20.40
2016,06,04,10,13,20.40
2016,06,04,10,14,20.50
2016,06,04,10,15,20.50
2016,06,04,10,16,20.60
2016,06,04,10,17,20.60
2016,06,04,10,18,20.60
2016,06,04,10,19,20.60
2016,06,04,10,20,20.70
2016,06,04,10,21,20.70
2016,06,04,10,22,20.70
2016,06,04,10,23,20.70
2016,06,04,10,24,20.70
2016,06,04,10,25,20.70
2016,06,04,10,26,20.80
2016,06,04,10,27,20.80
2016,06,04,10,28,20.80
2016,06,04,10,29,20.80
2016,06,04,10,30,20.80
2016,06,04,10,31,20.90
2016,06,04,10,32,20.90
2016,06,04,10,33,21.00
2016,06,04,10,34,20.90
2016,06,04,10,35,20.90
2016,06,04,10,36,20.90
2016,06,04,10,37,20.90
2016,06,04,10,38,20.80
2016,06,04,10,39,20.80
2016,06,04,10,40,20.80
2016,06,04,10,41,20.90
2016,06,04,10,42,20.90
2016,06,04,10,43,21.00
2016,06,04,10,44,21.00
2016,06,04,10,45,21.00
2016,06,04,10,46,21.10
2016,06,04,10,47,21.10
2016,06,04,10,48,21.20
2016,06,04,10,49,21.20
2016,06,04,10,50,21.30
2016,06,04,10,51,21.40
2016,06,04,10,52,21.50
2016,06,04,10,53,21.60
2016,06,04,10,54,21.60
2016,06,04,10,55,21.70
2016,06,04,10,56,21.70
2016,06,04,10,57,21.70
2016,06,04,10,58,21.70
2016,06,04,10,59,21.70
2016,06,04,11,00,21.70
2016,06,04,11,01,21.70
2016,06,04,11,02,21.80
2016,06,04,11,03,21.90
2016,06,04,11,04,22.00
2016,06,04,11,05,22.00
2016,06,04,11,06,22.10
2016,06,04,11,07,22.10
2016,06,04,11,08,22.10
2016,06,04,11,09,22.00
2016,06,04,11,10,22.00
2016,06,04,11,11,22.00
2016,06,04,11,12,22.00
2016,06,04,11,13,22.00
2016,06,04,11,14,22.00
2016,06,04,11,15,22.00
2016,06,04,11,16,22.00
2016,06,04,11,17,22.10
2016,06,04,11,18,22.10
2016,06,04,11,19,22.10
2016,06,04,11,20,22.20
2016,06,04,11,21,22.20
2016,06,04,11,22,22.20
2016,06,04,11,23,22.20
2016,06,04,11,24,22.20
2016,06,04,11,25,22.20
2016,06,04,11,26,22.20
2016,06,04,11,27,22.30
2016,06,04,11,28,22.30
2016,06,04,11,29,22.40
2016,06,04,11,30,22.40
2016,06,04,11,31,22.40
2016,06,04,11,32,22.40
2016,06,04,11,33,22.40
2016,06,04,11,34,22.40
2016,06,04,11,35,22.30
2016,06,04,11,36,22.30
2016,06,04,11,37,22.40
2016,06,04,11,38,22.40
2016,06,04,11,39,22.50
2016,06,04,11,40,22.50
2016,06,04,11,41,22.60
2016,06,04,11,42,22.50
2016,06,04,11,43,22.50
2016,06,04,11,44,22.50
2016,06,04,11,45,22.50
2016,06,04,11,46,22.50
2016,06,04,11,47,22.50
2016,06,04,11,48,22.50
2016,06,04,11,49,22.60
2016,06,04,11,50,22.60
2016,06,04,11,51,22.60
2016,06,04,11,52,22.60
2016,06,04,11,53,22.60
2016,06,04,11,54,22.70
2016,06,04,11,55,22.80
2016,06,04,11,56,22.90
2016,06,04,11,57,22.90
2016,06,04,11,58,23.00
2016,06,04,11,59,23.10
2016,06,04,12,00,23.10
2016,06,04,12,01,23.10
2016,06,04,12,02,23.10
2016,06,04,12,03,23.10
2016,06,04,12,04,23.00
2016,06,04,12,05,23.00
2016,06,04,12,06,23.10
2016,06,04,12,07,23.10
2016,06,04,12,08,23.20
2016,06,04,12,09,23.20
2016,06,04,12,10,23.20
2016,06,04,12,11,23.30
2016,06,04,12,12,23.20
2016,06,04,12,13,23.20
2016,06,04,12,14,23.20
2016,06,04,12,15,23.20
2016,06,04,12,16,23.20
2016,06,04,12,17,23.20
2016,06,04,12,18,23.20
2016,06,04,12,19,23.30
2016,06,04,12,20,23.40
2016,06,04,12,21,23.50
2016,06,04,12,22,23.50
2016,06,04,12,23,23.50
2016,06,04,12,24,23.60
2016,06,04,12,25,23.60
2016,06,04,12,26,23.70
2016,06,04,12,27,23.70
2016,06,04,12,28,23.80
2016,06,04,12,29,23.80
2016,06,04,12,30,23.80
2016,06,04,12,31,23.80
2016,06,04,12,32,23.80
2016,06,04,12,33,23.90
2016,06,04,12,34,23.90
2016,06,04,12,35,24.00
2016,06,04,12,36,24.20
2016,06,04,12,37,24.30
2016,06,04,12,38,24.30
2016,06,04,12,39,24.40
2016,06,04,12,40,24.30
2016,06,04,12,41,24.20
2016,06,04,12,42,24.10
2016,06,04,12,43,24.10
2016,06,04,12,44,24.10
2016,06,04,12,45,24.10
2016,06,04,12,46,24.20
2016,06,04,12,47,24.20
2016,06,04,12,48,24.40
2016,06,04,12,49,24.50
2016,06,04,12,50,24.50
2016,06,04,12,51,24.50
2016,06,04,12,52,24.50
2016,06,04,12,53,24.50
2016,06,04,12,54,24.50
2016,06,04,12,55,24.60
2016,06,04,12,56,24.70
2016,06,04,12,57,24.80
2016,06,04,12,58,24.80
2016,06,04,12,59,24.70
2016,06,04,13,00,24.70
2016,06,04,13,01,24.70
2016,06,04,13,02,24.70
2016,06,04,13,03,24.70
2016,06,04,13,04,24.70
2016,06,04,13,05,24.70
2016,06,04,13,06,24.70
2016,06,04,13,07,24.80
2016,06,04,13,08,25.00
2016,06,04,13,09,25.10
2016,06,04,13,10,25.20
2016,06,04,13,11,25.30
2016,06,04,13,12,25.20
2016,06,04,13,13,25.20
2016,06,04,13,14,25.20
2016,06,04,13,15,25.10
2016,06,04,13,16,25.10
2016,06,04,13,17,25.10
2016,06,04,13,18,25.10
2016,06,04,13,19,25.10
2016,06,04,13,20,25.10
2016,06,04,13,21,25.10
2016,06,04,13,22,25.20
2016,06,04,13,23,25.20
2016,06,04,13,24,25.20
2016,06,04,13,25,25.20
2016,06,04,13,26,25.20
2016,06,04,13,27,25.20
2016,06,04,13,28,25.20
2016,06,04,13,29,25.20
2016,06,04,13,30,25.20
2016,06,04,13,31,25.20
2016,06,04,13,32,25.30
2016,06,04,13,33,25.40
2016,06,04,13,34,25.50
2016,06,04,13,35,25.70
2016,06,04,13,36,25.80
2016,06,04,13,37,25.80
2016,06,04,13,38,25.90
2016,06,04,13,39,26.00
2016,06,04,13,40,26.10
2016,06,04,13,41,26.20
2016,06,04,13,42,26.30
2016,06,04,13,43,26.30
2016,06,04,13,44,26.30
2016,06,04,13,45,26.10
2016,06,04,13,46,26.00
2016,06,04,13,47,25.90
2016,06,04,13,48,25.80
2016,06,04,13,49,25.80
2016,06,04,13,50,25.80
2016,06,04,13,51,25.70
2016,06,04,13,52,25.80
2016,06,04,13,53,25.70
2016,06,04,13,54,25.70
2016,06,04,13,55,25.60
2016,06,04,13,56,25.60
2016,06,04,13,57,25.70
2016,06,04,13,58,25.70
2016,06,04,13,59,25.80
2016,06,04,14,00,25.90
2016,06,04,14,01,25.90
2016,06,04,14,02,26.00
2016,06,04,14,03,26.00
2016,06,04,14,04,26.00
2016,06,04,14,05,26.00
2016,06,04,14,06,26.00
2016,06,04,14,07,26.10
2016,06,04,14,08,26.20
2016,06,04,14,09,26.30
2016,06,04,14,10,26.30
2016,06,04,14,11,26.40
2016,06,04,14,12,26.40
2016,06,04,14,13,26.40
2016,06,04,14,14,26.50
2016,06,04,14,15,26.40
2016,06,04,14,16,26.30
2016,06,04,14,17,26.10
2016,06,04,14,18,26.00
2016,06,04,14,19,25.90
2016,06,04,14,20,25.90
2016,06,04,14,21,26.00
2016,06,04,14,22,26.00
2016,06,04,14,23,26.00
2016,06,04,14,24,26.00
2016,06,04,14,25,26.00
2016,06,04,14,26,26.10
2016,06,04,14,27,26.20
2016,06,04,14,28,26.30
2016,06,04,14,29,26.30
2016,06,04,14,30,26.30
2016,06,04,14,31,26.30
2016,06,04,14,32,26.30
2016,06,04,14,33,26.30
2016,06,04,14,34,26.30
2016,06,04,14,35,26.30
2016,06,04,14,36,26.30
2016,06,04,14,37,26.20
2016,06,04,14,38,26.20
2016,06,04,14,39,26.10
2016,06,04,14,40,26.20
2016,06,04,14,41,26.30
2016,06,04,14,42,26.40
2016,06,04,14,43,26.60
2016,06,04,14,44,26.70
2016,06,04,14,45,26.70
2016,06,04,14,46,26.70
2016,06,04,14,47,26.70
2016,06,04,14,48,26.70
2016,06,04,14,49,26.80
2016,06,04,14,50,26.80
2016,06,04,14,51,26.90
2016,06,04,14,52,27.00
2016,06,04,14,53,27.10
2016,06,04,14,54,27.20
2016,06,04,14,55,27.20
2016,06,04,14,56,27.30
2016,06,04,14,57,27.30
2016,06,04,14,58,27.40
2016,06,04,14,59,27.40
2016,06,04,15,00,27.30
2016,06,04,15,01,27.20
2016,06,04,15,02,27.00
2016,06,04,15,03,26.90
2016,06,04,15,04,26.80
2016,06,04,15,05,26.70
2016,06,04,15,06,26.60
2016,06,04,15,07,26.50
2016,06,04,15,08,26.50
2016,06,04,15,09,26.50
2016,06,04,15,10,26.50
2016,06,04,15,11,26.60
2016,06,04,15,12,26.80
2016,06,04,15,13,26.90
2016,06,04,15,14,27.10
2016,06,04,15,15,27.30
2016,06,04,15,16,27.50
2016,06,04,15,17,27.60
2016,06,04,15,18,27.70
2016,06,04,15,19,27.80
2016,06,04,15,20,27.90
2016,06,04,15,21,28.00
2016,06,04,15,22,28.00
2016,06,04,15,23,28.00
2016,06,04,15,24,28.00
2016,06,04,15,25,28.00
2016,06,04,15,26,27.90
2016,06,04,15,27,27.90
2016,06,04,15,28,27.90
2016,06,04,15,29,27.90
2016,06,04,15,30,27.90
2016,06,04,15,31,27.80
2016,06,04,15,32,27.80
2016,06,04,15,33,27.80
2016,06,04,15,34,27.70
2016,06,04,15,35,27.70
2016,06,04,15,36,27.70
2016,06,04,15,37,27.70
2016,06,04,15,38,27.70
2016,06,04,15,39,27.80
2016,06,04,15,40,27.80
2016,06,04,15,41,27.80
2016,06,04,15,42,27.80
2016,06,04,15,43,27.80
2016,06,04,15,44,27.80
2016,06,04,15,45,27.80
2016,06,04,15,46,27.80
2016,06,04,15,47,27.90
2016,06,04,15,48,27.90
2016,06,04,15,49,28.00
2016,06,04,15,50,28.00
2016,06,04,15,51,28.10
2016,06,04,15,52,28.20
2016,06,04,15,53,28.30
2016,06,04,15,54,28.40
2016,06,04,15,55,28.50
2016,06,04,15,56,28.50
2016,06,04,15,57,28.50
2016,06,04,15,58,28.50
2016,06,04,15,59,28.40
2016,06,04,16,00,28.40
2016,06,04,16,01,28.30
2016,06,04,16,02,28.20
2016,06,04,16,03,28.20
2016,06,04,16,04,28.10
2016,06,04,16,05,28.10
2016,06,04,16,06,28.10
2016,06,04,16,07,28.00
2016,06,04,16,08,27.90
2016,06,04,16,09,27.90
2016,06,04,16,10,27.80
2016,06,04,16,11,27.80
2016,06,04,16,12,27.80
2016,06,04,16,13,27.70
2016,06,04,16,14,27.70
2016,06,04,16,15,27.60
2016,06,04,16,16,27.60
2016,06,04,16,17,27.50
2016,06,04,16,18,27.40
2016,06,04,16,19,27.40
2016,06,04,16,20,27.30
2016,06,04,16,21,27.30
2016,06,04,16,22,27.30
2016,06,04,16,23,27.30
2016,06,04,16,24,27.30
2016,06,04,16,25,27.30
2016,06,04,16,26,27.30
2016,06,04,16,27,27.20
2016,06,04,16,28,27.20
2016,06,04,16,29,27.20
2016,06,04,16,30,27.20
2016,06,04,16,31,27.20
2016,06,04,16,32,27.20
2016,06,04,16,33,27.30
2016,06,04,16,34,27.30
2016,06,04,16,35,27.30
2016,06,04,16,36,27.30
2016,06,04,16,37,27.30
2016,06,04,16,38,27.30
2016,06,04,16,39,27.30
2016,06,04,16,40,27.30
2016,06,04,16,41,27.20
2016,06,04,16,42,27.20
2016,06,04,16,43,27.20
2016,06,04,16,44,27.30
2016,06,04,16,45,27.30
2016,06,04,16,46,27.30
2016,06,04,16,47,27.40
2016,06,04,16,48,27.40
2016,06,04,16,49,27.40
2016,06,04,16,50,27.40
2016,06,04,16,51,27.40
2016,06,04,16,52,27.40
2016,06,04,16,53,27.40
2016,06,04,16,54,27.40
2016,06,04,16,55,27.40
2016,06,04,16,56,27.40
2016,06,04,16,57,27.50
2016,06,04,16,58,27.50
2016,06,04,16,59,27.50
2016,06,04,17,00,27.50
2016,06,04,17,01,27.60
2016,06,04,17,02,27.50
2016,06,04,17,03,27.50
2016,06,04,17,04,27.50
2016,06,04,17,05,27.50
2016,06,04,17,06,27.50
2016,06,04,17,07,27.50
2016,06,04,17,08,27.60
2016,06,04,17,09,27.70
2016,06,04,17,10,27.70
2016,06,04,17,11,27.80
2016,06,04,17,12,27.70
2016,06,04,17,13,27.70
2016,06,04,17,14,27.70
2016,06,04,17,15,27.70
2016,06,04,17,16,27.70
2016,06,04,17,17,27.70
2016,06,04,17,18,27.70
2016,06,04,17,19,27.70